Year,Month,Day,Hour,Minute,Value (Times are PST for temperature in C)
2022,10,16,09,02,18.70
2022,10,16,09,03,18.70
2022,10,16,09,04,18.70
2022,10,16,09,05,18.80
2022,10,16,09,06,18.80
2022,10,16,09,07,18.80
2022,10,16,09,08,18.90
2022,10,16,09,09,18.90
2022,10,16,09,10,18.90
2022,10,16,09,11,18.90
2022,10,16,09,12,19.00
2022,10,16,09,13,19.10
2022,10,16,09,14,19.10
2022,10,16,09,15,19.10
2022,10,16,09,16,19.10
2022,10,16,09,17,19.10
2022,10,16,09,18,19.20
2022,10,16,09,19,19.20
2022,10,16,09,20,19.20
2022,10,16,09,21,19.30
2022,10,16,09,22,19.30
2022,10,16,09,23,19.40
2022,10,16,09,24,19.40
2022,10,16,09,25,19.40
2022,10,16,09,26,19.50
2022,10,16,09,27,19.50
2022,10,16,09,28,19.50
2022,10,16,09,29,19.50
2022,10,16,09,30,19.60
2022,10,16,09,31,19.60
2022,10,16,09,32,19.60
2022,10,16,09,33,19.70
2022,10,16,09,34,19.70
2022,10,16,09,35,19.70
2022,10,16,09,36,19.70
2022,10,16,09,37,19.80
2022,10,16,09,38,19.80
2022,10,16,09,39,19.80
2022,10,16,09,40,19.80
2022,10,16,09,41,19.80
2022,10,16,09,42,19.80
2022,10,16,09,43,19.80
2022,10,16,09,44,19.90
2022,10,16,09,45,19.90
2022,10,16,09,46,19.90
2022,10,16,09,47,19.90
2022,10,16,09,48,19.90
2022,10,16,09,49,19.90
2022,10,16,09,50,19.90
2022,10,16,09,51,19.90
2022,10,16,09,52,19.90
2022,10,16,09,53,19.90
2022,10,16,09,54,20.10
2022,10,16,09,55,20.10
2022,10,16,09,56,20.10
2022,10,16,09,57,20.10
2022,10,16,09,58,20.20
2022,10,16,09,59,20.20
2022,10,16,10,00,20.20
2022,10,16,10,01,20.20
2022,10,16,10,02,20.20
2022,10,16,10,03,20.20
2022,10,16,10,04,20.20
2022,10,16,10,05,20.20
2022,10,16,10,06,20.20
2022,10,16,10,07,20.20
2022,10,16,10,08,20.30
2022,10,16,10,09,20.30
2022,10,16,10,10,20.30
2022,10,16,10,11,20.40
2022,10,16,10,12,20.40
2022,10,16,10,13,20.40
2022,10,16,10,14,20.40
2022,10,16,10,15,20.40
2022,10,16,10,16,20.50
2022,10,16,10,17,20.50
2022,10,16,10,18,20.50
2022,10,16,10,19,20.50
2022,10,16,10,20,20.60
2022,10,16,10,21,20.60
2022,10,16,10,22,20.60
2022,10,16,10,23,20.60
2022,10,16,10,24,20.60
2022,10,16,10,25,20.60
2022,10,16,10,26,20.60
2022,10,16,10,27,20.60
2022,10,16,10,28,20.60
2022,10,16,10,29,20.70
2022,10,16,10,30,20.70
2022,10,16,10,31,20.70
2022,10,16,10,32,20.70
2022,10,16,10,33,20.70
2022,10,16,10,34,20.70
2022,10,16,10,35,20.70
2022,10,16,10,36,20.70
2022,10,16,10,37,20.60
2022,10,16,10,38,20.60
2022,10,16,10,39,20.60
2022,10,16,10,40,20.70
2022,10,16,10,41,20.70
2022,10,16,10,42,20.70
2022,10,16,10,43,20.70
2022,10,16,10,44,20.80
2022,10,16,10,45,20.80
2022,10,16,10,46,20.80
2022,10,16,10,47,20.80
2022,10,16,10,48,20.80
2022,10,16,10,49,20.90
2022,10,16,10,50,20.90
2022,10,16,10,51,20.90
2022,10,16,10,52,20.90
2022,10,16,10,53,21.00
2022,10,16,10,54,21.00
2022,10,16,10,55,21.00
2022,10,16,10,56,21.00
2022,10,16,10,57,21.00
2022,10,16,10,58,21.00
2022,10,16,10,59,21.00
2022,10,16,11,00,21.00
2022,10,16,11,01,21.10
2022,10,16,11,02,21.10
2022,10,16,11,03,21.10
2022,10,16,11,04,21.20
2022,10,16,11,05,21.20
2022,10,16,11,06,21.20
2022,10,16,11,07,21.30
2022,10,16,11,08,21.30
2022,10,16,11,09,21.30
2022,10,16,11,10,21.30
2022,10,16,11,11,21.40
2022,10,16,11,12,21.40
2022,10,16,11,13,21.40
2022,10,16,11,14,21.60
2022,10,16,11,15,21.60
2022,10,16,11,16,21.60
2022,10,16,11,17,21.60
2022,10,16,11,18,21.60
2022,10,16,11,19,21.70
2022,10,16,11,20,21.70
2022,10,16,11,21,21.80
2022,10,16,11,22,21.80
2022,10,16,11,23,21.80
2022,10,16,11,24,21.80
2022,10,16,11,25,21.80
2022,10,16,11,26,21.80
2022,10,16,11,27,21.70
2022,10,16,11,28,21.70
2022,10,16,11,29,21.70
2022,10,16,11,30,21.70
2022,10,16,11,31,21.70
2022,10,16,11,32,21.80
2022,10,16,11,33,21.80
2022,10,16,11,34,21.90
2022,10,16,11,35,21.90
2022,10,16,11,36,21.90
2022,10,16,11,37,21.90
2022,10,16,11,38,21.90
2022,10,16,11,39,21.90
2022,10,16,11,40,22.00
2022,10,16,11,41,22.00
2022,10,16,11,42,22.00
2022,10,16,11,43,22.10
2022,10,16,11,44,22.10
2022,10,16,11,45,22.10
2022,10,16,11,46,22.20
2022,10,16,11,47,22.20
2022,10,16,11,48,22.30
2022,10,16,11,49,22.30
2022,10,16,11,50,22.40
2022,10,16,11,51,22.40
2022,10,16,11,52,22.40
2022,10,16,11,53,22.40
2022,10,16,11,54,22.40
2022,10,16,11,55,22.50
2022,10,16,11,56,22.50
2022,10,16,11,57,22.50
2022,10,16,11,58,22.50
2022,10,16,11,59,22.50
2022,10,16,12,00,22.60
2022,10,16,12,01,22.60
2022,10,16,12,02,22.60
2022,10,16,12,03,22.60
2022,10,16,12,04,22.60
2022,10,16,12,05,22.60
2022,10,16,12,06,22.70
2022,10,16,12,07,22.70
2022,10,16,12,08,22.70
2022,10,16,12,09,22.70
2022,10,16,12,10,22.80
2022,10,16,12,11,22.80
2022,10,16,12,12,22.80
2022,10,16,12,13,22.80
2022,10,16,12,14,22.80
2022,10,16,12,15,22.80
2022,10,16,12,16,22.90
2022,10,16,12,17,22.90
2022,10,16,12,18,22.90
2022,10,16,12,19,22.90
2022,10,16,12,20,22.90
2022,10,16,12,21,23.00
2022,10,16,12,22,23.10
2022,10,16,12,23,23.10
2022,10,16,12,24,23.20
2022,10,16,12,25,23.20
2022,10,16,12,26,23.30
2022,10,16,12,27,23.30
2022,10,16,12,28,23.30
2022,10,16,12,29,23.30
2022,10,16,12,30,23.30
2022,10,16,12,31,23.30
2022,10,16,12,32,23.30
2022,10,16,12,33,23.30
2022,10,16,12,34,23.40
2022,10,16,12,35,23.40
2022,10,16,12,36,23.40
2022,10,16,12,37,23.40
2022,10,16,12,38,23.40
2022,10,16,12,39,23.40
2022,10,16,12,40,23.40
2022,10,16,12,41,23.40
2022,10,16,12,42,23.40
2022,10,16,12,43,23.40
2022,10,16,12,44,23.40
2022,10,16,12,45,23.40
2022,10,16,12,46,23.50
2022,10,16,12,47,23.60
2022,10,16,12,48,23.60
2022,10,16,12,49,23.60
2022,10,16,12,50,23.60
2022,10,16,12,51,23.60
2022,10,16,12,52,23.50
2022,10,16,12,53,23.40
2022,10,16,12,54,23.40
2022,10,16,12,55,23.40
2022,10,16,12,56,23.40
2022,10,16,12,57,23.40
2022,10,16,12,58,23.40
2022,10,16,12,59,23.40
2022,10,16,13,00,23.40
2022,10,16,13,01,23.40
2022,10,16,13,02,23.40
2022,10,16,13,03,23.40
2022,10,16,13,04,23.40
2022,10,16,13,05,23.50
2022,10,16,13,06,23.50
2022,10,16,13,07,23.40
2022,10,16,13,08,23.50
2022,10,16,13,09,23.60
2022,10,16,13,10,23.60
2022,10,16,13,11,23.50
2022,10,16,13,12,23.40
2022,10,16,13,13,23.50
2022,10,16,13,14,23.60
2022,10,16,13,15,23.60
2022,10,16,13,16,23.60
2022,10,16,13,17,23.60
2022,10,16,13,18,23.60
2022,10,16,13,19,23.60
2022,10,16,13,20,23.60
2022,10,16,13,21,23.60
2022,10,16,13,22,23.60
2022,10,16,13,23,23.60
2022,10,16,13,24,23.60
2022,10,16,13,25,23.60
2022,10,16,13,26,23.60
2022,10,16,13,27,23.60
2022,10,16,13,28,23.60
2022,10,16,13,29,23.60
2022,10,16,13,30,23.60
2022,10,16,13,31,23.60
2022,10,16,13,32,23.60
2022,10,16,13,33,23.70
2022,10,16,13,34,23.70
2022,10,16,13,35,23.70
2022,10,16,13,36,23.70
2022,10,16,13,37,23.70
2022,10,16,13,38,23.70
2022,10,16,13,39,23.70
2022,10,16,13,40,23.70
2022,10,16,13,41,23.70
2022,10,16,13,42,23.70
2022,10,16,13,43,23.70
2022,10,16,13,44,23.70
2022,10,16,13,45,23.70
2022,10,16,13,46,23.80
2022,10,16,13,47,23.80
2022,10,16,13,48,23.90
2022,10,16,13,49,23.90
2022,10,16,13,50,23.90
2022,10,16,13,51,24.00
2022,10,16,13,52,24.10
2022,10,16,13,53,24.10
2022,10,16,13,54,24.10
2022,10,16,13,55,24.10
2022,10,16,13,56,24.10
2022,10,16,13,57,24.10
2022,10,16,13,58,24.10
2022,10,16,13,59,24.10
2022,10,16,14,00,24.10
2022,10,16,14,01,24.20
2022,10,16,14,02,24.20
2022,10,16,14,03,24.20
2022,10,16,14,04,24.20
2022,10,16,14,05,24.20
2022,10,16,14,06,24.20
2022,10,16,14,07,24.20
2022,10,16,14,08,24.20
2022,10,16,14,09,24.20
2022,10,16,14,10,24.20
2022,10,16,14,11,24.20
2022,10,16,14,12,24.30
2022,10,16,14,13,24.30
2022,10,16,14,14,24.40
2022,10,16,14,15,24.40
2022,10,16,14,16,24.50
2022,10,16,14,17,24.50
2022,10,16,14,18,24.60
2022,10,16,14,19,24.60
2022,10,16,14,20,24.60
2022,10,16,14,21,24.60
2022,10,16,14,22,24.50
2022,10,16,14,23,24.50
2022,10,16,14,24,24.50
2022,10,16,14,25,24.50
2022,10,16,14,26,24.50
2022,10,16,14,27,24.50
2022,10,16,14,28,24.50
2022,10,16,14,29,24.50
2022,10,16,14,30,24.60
2022,10,16,14,31,24.60
2022,10,16,14,32,24.60
2022,10,16,14,33,24.60
2022,10,16,14,34,24.60
2022,10,16,14,35,24.60
2022,10,16,14,36,24.60
2022,10,16,14,37,24.60
2022,10,16,14,38,24.60
2022,10,16,14,39,24.60
2022,10,16,14,40,24.60
2022,10,16,14,41,24.70
2022,10,16,14,42,24.70
2022,10,16,14,43,24.80
2022,10,16,14,44,24.80
2022,10,16,14,45,24.80
2022,10,16,14,46,24.80
2022,10,16,14,47,24.90
2022,10,16,14,48,24.90
2022,10,16,14,49,24.90
2022,10,16,14,50,25.00
2022,10,16,14,51,25.00
2022,10,16,14,52,25.00
2022,10,16,14,53,25.00
2022,10,16,14,54,25.00
2022,10,16,14,55,25.10
2022,10,16,14,56,25.10
2022,10,16,14,57,25.10
2022,10,16,14,58,25.10
2022,10,16,14,59,25.00
2022,10,16,15,00,25.00
2022,10,16,15,01,24.90
2022,10,16,15,02,24.90
2022,10,16,15,03,24.90
2022,10,16,15,04,24.80
2022,10,16,15,05,24.80
2022,10,16,15,06,24.80
2022,10,16,15,07,24.80
2022,10,16,15,08,24.90
2022,10,16,15,09,24.90
2022,10,16,15,10,24.90
2022,10,16,15,11,24.90
2022,10,16,15,12,24.90
2022,10,16,15,13,24.90
2022,10,16,15,14,25.00
2022,10,16,15,15,25.00
2022,10,16,15,16,25.10
2022,10,16,15,17,25.10
2022,10,16,15,18,25.10
2022,10,16,15,19,25.10
2022,10,16,15,20,25.10
2022,10,16,15,21,25.10
2022,10,16,15,22,25.10
2022,10,16,15,23,25.10
2022,10,16,15,24,25.10
2022,10,16,15,25,25.10
2022,10,16,15,26,25.10
2022,10,16,15,27,25.10
2022,10,16,15,28,25.10
2022,10,16,15,29,25.10
2022,10,16,15,30,25.10
2022,10,16,15,31,25.10
2022,10,16,15,32,25.20
2022,10,16,15,33,25.20
2022,10,16,15,34,25.20
2022,10,16,15,35,25.30
2022,10,16,15,36,25.30
2022,10,16,15,37,25.30
2022,10,16,15,38,25.40
2022,10,16,15,39,25.30
2022,10,16,15,40,25.30
2022,10,16,15,41,25.30
2022,10,16,15,42,25.30
2022,10,16,15,43,25.30
2022,10,16,15,44,25.30
2022,10,16,15,45,25.30
2022,10,16,15,46,25.30
2022,10,16,15,47,25.40
2022,10,16,15,48,25.40
2022,10,16,15,49,25.40
2022,10,16,15,50,25.50
2022,10,16,15,51,25.50
2022,10,16,15,52,25.40
2022,10,16,15,53,25.10
2022,10,16,15,54,24.40
2022,10,16,15,55,23.70
2022,10,16,15,56,23.10
2022,10,16,15,57,22.60
2022,10,16,15,58,22.10
2022,10,16,15,59,21.70
2022,10,16,16,00,21.40
2022,10,16,16,01,21.20
2022,10,16,16,02,21.00
2022,10,16,16,03,20.70
2022,10,16,16,04,20.60
2022,10,16,16,05,20.50
2022,10,16,16,06,20.40
2022,10,16,16,07,20.30
2022,10,16,16,08,20.30
2022,10,16,16,09,20.20
2022,10,16,16,10,20.20
2022,10,16,16,11,20.10
2022,10,16,16,12,20.10
2022,10,16,16,13,20.10
2022,10,16,16,14,20.10
2022,10,16,16,15,20.10
2022,10,16,16,16,20.10
2022,10,16,16,17,20.10
2022,10,16,16,18,20.10
2022,10,16,16,19,19.90
2022,10,16,16,20,19.90
2022,10,16,16,21,19.90
2022,10,16,16,22,19.90
2022,10,16,16,23,19.90
2022,10,16,16,24,19.90
2022,10,16,16,25,19.90
2022,10,16,16,26,19.90
2022,10,16,16,27,19.90
2022,10,16,16,28,19.90
2022,10,16,16,29,19.90
2022,10,16,16,30,20.00
2022,10,16,16,31,20.10
2022,10,16,16,32,20.10
2022,10,16,16,33,20.20
2022,10,16,16,34,20.20
2022,10,16,16,35,20.20
2022,10,16,16,36,20.20
2022,10,16,16,37,20.20
2022,10,16,16,38,20.20
2022,10,16,16,39,20.20
2022,10,16,16,40,20.20
2022,10,16,16,41,20.20
2022,10,16,16,42,20.20
2022,10,16,16,43,20.20
2022,10,16,16,44,20.20
2022,10,16,16,45,20.20
2022,10,16,16,46,20.20
2022,10,16,16,47,20.20
2022,10,16,16,48,20.10
2022,10,16,16,49,20.00
2022,10,16,16,50,19.90
2022,10,16,16,51,19.90
2022,10,16,16,52,19.90
2022,10,16,16,53,19.80
2022,10,16,16,54,19.70
2022,10,16,16,55,19.70
2022,10,16,16,56,19.70
2022,10,16,16,57,19.60
2022,10,16,16,58,19.60
2022,10,16,16,59,19.60
2022,10,16,17,00,19.60
2022,10,16,17,01,19.60
2022,10,16,17,02,19.50
2022,10,16,17,03,19.50
2022,10,16,17,04,19.50
2022,10,16,17,05,19.50
2022,10,16,17,06,19.50
2022,10,16,17,07,19.50
2022,10,16,17,08,19.50
2022,10,16,17,09,19.50
2022,10,16,17,10,19.50
2022,10,16,17,11,19.60
2022,10,16,17,12,19.60
2022,10,16,17,13,19.60
2022,10,16,17,14,19.60
2022,10,16,17,15,19.60
2022,10,16,17,16,19.60
2022,10,16,17,17,19.60
2022,10,16,17,18,19.60
2022,10,16,17,19,19.60
2022,10,16,17,20,19.60
2022,10,16,17,21,19.60
2022,10,16,17,22,19.60
2022,10,16,17,23,19.60
2022,10,16,17,24,19.70
2022,10,16,17,25,19.70
2022,10,16,17,26,19.70
2022,10,16,17,27,19.70
2022,10,16,17,28,19.70
2022,10,16,17,29,19.70
2022,10,16,17,30,19.70
2022,10,16,17,31,19.70
2022,10,16,17,32,19.70
2022,10,16,17,33,19.70
2022,10,16,17,34,19.70
2022,10,16,17,35,19.70
2022,10,16,17,36,19.70
2022,10,16,17,37,19.70
2022,10,16,17,38,19.70
2022,10,16,17,39,19.70
2022,10,16,17,40,19.70
2022,10,16,17,41,19.70
2022,10,16,17,42,19.70
